Back to catalog

CZ-6A DEB

AlivePO
NORAD 61178·DEBRIS·🇨🇳 China

Launched Aug 6, 2024 from Taiyuan Satellite Launch Center

Loading…

Next Passes (next 24 hours)

TLE

FreshSource: Space-Track

Epoch: Sep 14, 2026, 10:25 UTC

1 61178U 24140RY  26257.43421100  .00000498  00000-0  20340-3 0  9994
2 61178  88.9499 259.6530 0035403 287.5461  72.1865 14.25497110107203

Track CZ-6A DEB in real time with AllMySat

Download on the App Store